METEOR 2-17 DEB, 38282

Orbit data source: Space-Track

METEOR 2-17 DEB, 38282 is space debris in LEO originally from a launch on Sat, 30 Jan 1988 UTC launched from the Plesetsk Missile And Space Complex (PKMTR). Debris objects in space refer to the collection of defunct objects orbiting the Earth. Examples of debris include non-operational satellites, rocket bodies, and fragments generated from explosions, collisions, or faulty payload assembly.

Loading next visibility...
Identifier
38282, 1988-005AK
Orbit
LEO
Country
Flag of CISCIS
Related business
Manufacturer
Unknown
Mission
Spacecraft
Bus & Motor
Unknown
Mass
Unknown
Launch date (UTC)
1988-01-30 (38 years ago)
Launch vehicle
Unknown
Launch site
Plesetsk Missile And Space Complex (PKMTR)
Object type
Payload
Rocket body
Debris
Shape & HBR
Unknown shape, 0.1 m
Radar Cross Section
Small (<0.1 m²)

Expand to show TLE details & history
Last TLE update: 1 day ago

TLE from 1 day ago
0 METEOR 2-17 DEB
1 38282U 88005AK  25351.48287113  .00001811  00000-0  11661-2 0  9992
2 38282  82.5360  47.3585 0023725  37.6368 322.6457 14.02436599 85402
Epoch: 2025-12-17T11:35Z
TLE epoch observation values (Epoch: 2025-12-17T11:35:20.065Z)
Latitude
-0.00001°
Longitude
147.17281°
Altitude
874.611 km
Speed
7.422 km/s
True Right ascension
03h 09m 26s
True Declination
0° 00' 00"
Sunlit
Object was in full shadow at epoch
Visualization orbit readout
Latitude
Unknown
Longitude
Unknown
Altitude
Unknown
Speed
Unknown
Apparent Right ascension
Unknown
Apparent Declination
Unknown
Sunlit
N/A
Visualization observer readout
Local Sidereal Time
19:25:26
Azimuth
Unknown
Elevation
Unknown
Doppler factor
Unknown
Orbital elements
Apogee altitude
899.723 km
Perigee altitude
865.271 km
Semi-major axis
7,260.634 km
Eccentricity
0.00237
Inclination
82.536°
RAAN
47.3585°
Arg. of periapsis
37.6368°
True anomaly
322.48036°
Mean anomaly
322.6457°
Eccentric anomaly
322.56307°
Mean motion
3.50818 °/min
Orbital period
102.62 mins
BSTAR
0.0011661
Loading maneuver chart data...
Computing Atmospheric mass density...
Loading historical data...
Loading historical data...
Loading historical data...
Loading historical data...
Loading historical data...
Loading historical data...
Loading historical data...

Documentation

Showing up to 5 results
|